Flag for China Weather past 2 weeks in Lanzhou, Gansu, China

Now
52 °F

Fog.


Feels Like: 52 °F
Forecast: 51 / 73 °F
Wind: 1 mph from North

Location: Lanzhou / Zhongchuan

Current Time: Aug 22, 2014 at 1:04:37 AM

Latest Report: Aug 22, 2014 at 12:00 AM


Visibility: 1 mi

Pressure: 30.15 "Hg

Humidity: 94%

Dew point: 50 °F

Location of LanzhouLocation

Historic Weather in Lanzhou — Graph

°F

Lanzhou temperature yesterday

Maximum temperature yesterday: 63 °F (at 12:00 AM)
Minimum temperature yesterday: 54 °F (at 11:00 PM)
Average temperature yesterday: 60 °F

Past Weeks' High & Low Weather Summary

 TemperatureHumidityPressure
High81 °F (Aug 9, 6:00 PM)100% (Aug 9, 4:00 AM)30.18 "Hg (Aug 9, 4:00 AM)
Low43 °F (Aug 14, 6:00 AM)26% (Aug 17, 4:00 PM)29.89 "Hg (Aug 16, 3:00 PM)
Average63 °F68%30.06 "Hg
* Reported Midnight between Aug 6 and Aug 7 — Midnight between Aug 21 and Aug 22, Lanzhou, Weather by CustomWeather, © 2014

Note: Actual official high and low records may vary slightly from our data, if they occured in-between our weather recording intervals... More about our weather records

Advertising

Lanzhou weather history for previous 24 hours

 ConditionsComfort  
Time TempWeatherWind HumidityBarometerVisibility
12:00 AM
Aug 22
52 °FFog.1 mph94%30.15 "Hg1 mi
11:00 PM
Aug 21
54 °FFog.1 mph94%30.15 "Hg1 mi
10:00 PM57 °FFog.1 mph88%30.15 "Hg1 mi
9:00 PM57 °FFog.3 mph94%30.12 "Hg1 mi
8:00 PM59 °FPartly sunny.6 mph88%30.09 "HgN/A
7:00 PM59 °FPartly sunny.6 mph88%30.09 "HgN/A
6:00 PM61 °FOvercast.No wind83%30.09 "HgN/A
5:00 PM59 °FOvercast.3 mph88%30.07 "HgN/A
4:00 PM59 °FLight rain. Overcast.1 mph82%30.09 "HgN/A
3:00 PM61 °FLight rain. Fog.8 mph83%30.09 "Hg3 mi
2:00 PM63 °FLight rain. Fog.No wind77%30.09 "Hg3 mi
1:00 PM63 °FLight rain. Fog.1 mph77%30.09 "Hg2 mi
12:00 PM61 °FFog.1 mph83%30.09 "Hg2 mi
11:00 AM61 °FLight rain. Fog.3 mph83%30.09 "Hg1 mi
10:00 AM61 °FLight rain. Fog.1 mph77%30.09 "Hg1 mi
9:00 AM59 °FFog.No wind88%30.07 "Hg1 mi
8:00 AM59 °FLight rain. Fog.No wind88%30.07 "Hg1 mi
7:00 AM57 °FLight rain. Fog.1 mph94%30.07 "Hg1 mi
6:00 AM57 °FLight rain. Fog.No wind94%30.04 "Hg1 mi
5:00 AM59 °FFog.No wind82%30.04 "Hg2 mi
4:00 AM59 °FFog.No wind82%30.04 "Hg2 mi
3:00 AM59 °FFog.1 mph88%30.04 "Hg2 mi
2:00 AM61 °FFog.No wind77%30.07 "Hg2 mi
1:00 AM63 °FFog.No wind73%30.09 "Hg2 mi
Weather by CustomWeather, © 2014

See weather overviewHow to use our weather pages